Location: Nitra
(0.0000°N, 18.0833°E)
Time: 05:25:20
(UTC+01:00)

Iridium 4 Rocket - Pass Details

Date: 24 January 2021
Orbit: 583 x 906 km, 86.9° (Epoch: 04 March)

Event Time Altitude Azimuth Distance (km) Brightness Sun altitude
Rises 18:39:29 0° 4° (N) 3,160 6.5 -9.4°
Reaches altitude 10° 18:41:53 10° 6° (N) 2,188 5.6 -9.9°
Maximum altitude 18:46:42 73° 90° (E) 702 3.1 -11.1°
Drops below altitude 10° 18:51:07 10° 175° (S) 2,014 5.9 -12.1°
Sets 18:53:15 0° 177° (S) 2,888 6.7 -12.6°
